#timestamp,LO_Frequency,Hit,StdDev 
1643216415.2,286047001.4,N
1643216435.1,286047011.7,N
1643216436.0,286047011.7,N
1643216455.8,286047007.6,N
1643216475.7,286047001.3,N
1643216495.5,286047003.9,N
1643216515.3,286047004.8,N
1643216535.2,286047013.5,N
1643216555.0,286047007.8,N
1643216555.9,286047007.8,N
1643216575.8,286047011.9,N
1643216595.6,286047013.8,N
1643216615.4,286047015.9,Y
1643216635.3,286047008.0,P
1643216655.1,286047010.1,P
1643216675.8,286047011.4,P
1643216695.7,286047004.3,N
1643216715.5,286047002.6,N
1643216735.4,286047003.4,N
1643216755.2,286047008.7,N
1643216775.0,286047011.7,Y
1643216775.9,286047011.7,P
1643216795.8,286047008.5,P
1643216815.6,286047002.7,N
1643216835.5,286047002.3,N
1643216855.3,286047002.2,N
1643216875.1,286047005.6,N
1643216895.9,286047007.6,N
1643216915.7,286047005.2,N
1643216935.6,286047007.1,N
1643216955.4,286047013.4,Y
1643216975.2,286047003.2,P
1643216995.1,286047003.0,N
1643216996.0,286047003.0,N
1643217015.8,286046999.1,N
1643217035.7,286047001.7,N
1643217055.5,286047004.2,N
1643217075.3,286046998.3,N
1643217095.2,286046997.2,N
1643217115.0,286046999.0,N
1643217115.9,286046999.0,N
1643217135.8,286046998.7,N
1643217155.6,286046999.0,N
1643217175.4,286046992.7,N
1643217195.3,286046985.4,Y
1643217215.1,286046987.7,P
1643217235.9,286046991.3,N
1643217255.7,286046992.0,N
1643217275.5,286046987.9,N
1643217295.4,286046992.7,N
1643217315.2,286046986.9,Y
1643217335.0,286046994.0,P
1643217336.0,286046994.0,P
1643217355.8,286046995.4,P
1643217375.6,286047001.6,N
1643217395.5,286047002.0,N
1643217415.3,286047002.5,N
1643217435.1,286047008.9,N
1643217455.9,286047009.2,N
1643217475.7,286047011.8,N
1643217495.6,286047012.9,N
1643217515.4,286047017.1,N
1643217535.2,286047015.3,N
1643217555.1,286047017.0,N
1643217556.0,286047017.0,N
1643217575.8,286047016.3,N
1643217595.6,286047017.9,N
1643217615.5,286047013.0,N
1643217635.3,286047012.0,N
1643217655.2,286047015.9,N
1643217675.9,286047018.4,N
1643217695.7,286047010.9,N
1643217715.6,286047009.4,N
1643217735.4,286047009.2,N
1643217755.3,286047001.1,N
1643217775.1,286047004.2,N
1643217776.0,286047004.2,N
1643217795.8,286047007.2,N
1643217815.7,286047003.9,N
1643217835.5,286047006.7,N
1643217855.3,286047009.0,N
1643217875.2,286047010.1,N
1643217895.0,286047012.1,N
1643217895.9,286047012.1,N
1643217915.8,286047012.4,N
1643217935.6,286047006.3,N
1643217955.4,286047008.7,N
1643217975.3,286047011.8,N
1643217995.1,286047006.2,N
1643218015.9,286047014.0,Y
1643218035.7,286047010.7,P
1643218055.5,286047013.7,P
1643218075.4,286047009.8,P
1643218095.2,286047010.5,Y
1643218115.1,286046995.6,P
1643218116.0,286046995.6,N
1643218135.8,286046997.3,N
1643218155.6,286047002.8,N
1643218175.5,286047004.1,N
1643218195.3,286047009.9,N
1643218215.1,286047012.7,N
1643218235.9,286047013.4,N
1643218255.7,286047018.6,N
1643218275.6,286047019.2,N
1643218295.4,286047021.5,N
1643218315.2,286047013.0,N
1643218335.1,286047006.6,N
1643218336.0,286047006.6,N
1643218355.8,286047010.2,N
1643218375.7,286047007.9,N
1643218395.5,286047005.4,N
1643218415.3,286047004.2,N
1643218435.2,286046998.3,N
1643218455.0,286047006.8,N
1643218455.9,286047006.8,N
1643218475.8,286047003.1,N
1643218495.6,286046996.8,N
1643218515.4,286046998.3,N
1643218535.3,286046996.5,N
1643218555.1,286047004.8,N
1643218575.8,286047002.9,N
1643218595.7,286047001.4,N
1643218615.5,286047010.7,N
1643218635.4,286047006.2,N
1643218655.2,286047001.4,N
1643218675.0,286047002.0,N
1643218675.9,286047002.0,N
1643218695.8,286047006.2,N
1643218715.6,286047010.5,N
1643218735.4,286047011.3,N
1643218755.3,286047011.3,N
1643218775.1,286047008.9,N
1643218825.9,286047004.3,E
1643218835.8,286047004.8,N
1643218855.7,286047000.6,P
1643218875.5,286046998.8,N
1643218895.3,286047006.6,N
1643218915.2,286047005.6,N
1643218935.9,286047002.0,N
1643218955.7,286047000.6,N
1643218975.6,286046999.1,N
1643218995.4,286047003.6,N
1643219015.3,286047008.2,Y
1643219035.1,286047007.6,P
1643219036.0,286047007.6,N
1643219055.8,286047004.6,N
1643219075.7,286046999.9,N
1643219095.5,286047011.8,Y
1643219115.3,286047011.6,P
1643219135.2,286047009.1,N
1643219155.0,286047006.1,N
1643219155.9,286047006.1,N
1643219175.8,286047009.8,Y
1643219195.6,286047004.4,P
1643219215.4,286046996.5,N
1643219235.3,286046994.0,N
1643219255.1,286046992.1,N
1643219275.9,286046996.6,N
1643219295.7,286046994.3,N
1643219315.5,286046995.3,N
1643219335.4,286046995.6,N
1643219355.2,286046993.7,N
1643219375.0,286046995.0,N
1643219375.9,286046995.0,N
1643219395.8,286046997.7,N
1643219415.6,286046999.9,N
1643219435.5,286046997.5,N
1643219455.3,286046999.5,N
1643219475.1,286047001.6,N
1643219495.9,286047001.8,N
1643219515.7,286046999.8,N
1643219535.5,286046992.1,N
1643219555.4,286046992.6,N
1643219575.2,286046993.4,N
1643219595.0,286046995.8,N
1643219596.0,286046995.8,N
1643219615.8,286047003.7,N
1643219635.6,286047000.6,N
1643219655.5,286046993.4,N
1643219675.3,286046990.2,N
1643219695.1,286046992.6,N
1643219715.9,286046992.9,N
1643219735.7,286046995.5,N
1643219755.6,286046997.9,N
1643219775.4,286046995.7,N
1643219795.2,286046993.3,N
1643219815.1,286046999.1,N
1643219816.0,286046999.1,N
1643219835.8,286047004.1,N
1643219855.6,286047002.1,N
1643219875.5,286046994.9,N
1643219895.3,286046992.5,N
1643219915.2,286047000.1,N
1643219935.9,286047002.7,N
1643219955.7,286047000.1,N
1643219975.6,286047004.4,N
1643219995.4,286047008.3,N
